User: anonymous   Login
Location: Nians�bougou
(13.2321°N, 4.9818°W)
Time: 17:15:44
(UTC+00:00)
Language:

Meteor 1-27 - Orbit

View from above orbital plane
View from above orbital plane
View from above satellite
View from above satellite

Ground track
Ground track

The orbit data is extracted from the following two-line orbital elements,

1  9903U 77024A   20151.66674103  .00000037  00000-0  13985-4 0  9993
2  9903  81.2609 116.6249 0038295 119.7740 240.7248 14.08320043216870
Epoch (UTC): 30 May 2020 16:00:06
Eccentricity: 0.0038295
inclination: 81.2609°
perigee height: 837 km
apogee height: 893 km
right ascension of ascending node: 116.6249°
argument of perigee: 119.7740°
revolutions per day: 14.08320043
mean anomaly at epoch: 240.7248°
orbit number at epoch: 21687

The dashed part of the orbit path shows where the satellite is in the earth's shadow,  

DLR